User: anonymous   Login
Location: Hohe Wand Kleine Kanzel
(47.8330°N, 16.0170°E)
Time: 14:24:21
(UTC+02:00)
Language:

ESTCUBE 1 - Orbit

View from above orbital plane
View from above orbital plane
View from above satellite
View from above satellite

Ground track
Ground track

The orbit data is extracted from the following two-line orbital elements,

1 39161U 13021C   21264.02511071  .00000189  00000-0  37455-4 0  9995
2 39161  97.9333 343.0001 0008907 198.8760 161.2121 14.72531762449818
Epoch (UTC): 21 September 2021 00:36:09
Eccentricity: 0.0008907
inclination: 97.9333°
perigee height: 647 km
apogee height: 659 km
right ascension of ascending node: 343.0001°
argument of perigee: 198.8760°
revolutions per day: 14.72531762
mean anomaly at epoch: 161.2121°
orbit number at epoch: 44981

The dashed part of the orbit path shows where the satellite is in the earth's shadow,  

DLR